Home > Weather > Lanzhou > Past weeks

Flag for China Weather for the Past 2 Weeks in Lanzhou, Gansu, China

Now
23 °F

Clear.


Feels Like: 16 °F
Forecast: 18 / 47 °F
Wind: 6 mph from Northwest

Location: Lanzhou / Zhongchuan

Current Time: Feb 10, 2016 at 12:15:47 AM

Latest Report: Feb 9, 2016 at 11:00 PM


Visibility: 4 mi

Pressure: 29.86 "Hg (24.53 "Hg at 1543m altitude)

Humidity: 36%

Dew point: 0 °F

Location of LanzhouLocation

Historic Weather in Lanzhou — Graph

°F

Lanzhou Temperature Yesterday

Maximum temperature yesterday: 46 °F (at 4:00 PM)
Minimum temperature yesterday: 7 °F (at 8:00 AM)
Average temperature yesterday: 27 °F

High & Low Weather Summary for the Past Weeks

 TemperatureHumidityPressure
High48 °F (Feb 7, 4:00 PM)85% (Feb 4, 7:00 AM)30.51 "Hg (Feb 4, 7:00 AM)
Low-8 °F (Jan 26, 7:00 AM)9% (Feb 8, 4:00 PM)29.86 "Hg (Jan 27, 6:00 AM)
Average16 °F52%30.18 "Hg
* Reported Jan 25 10:00 PM — Feb 9 10:00 PM, Lanzhou, Weather by CustomWeather, © 2016

Note: Actual official high and low records may vary slightly from our data, if they occured in-between our weather recording intervals... More about our weather records

Advertising

Lanzhou Weather History for the Previous 24 Hours

 ConditionsComfort  
Time TempWeatherWind HumidityBarometerVisibility
10:00 PM
Tue, Feb 9
23 °FClear.6 mph30%29.89 "Hg4 mi
9:00 PM25 °FClear.6 mph28%29.89 "Hg3 mi
8:00 PM27 °FClear.6 mph26%29.89 "Hg4 mi
7:00 PM34 °FClear.1 mph19%29.86 "Hg5 mi
6:00 PM45 °FSunny.3 mph14%29.86 "Hg10 mi
5:00 PM46 °FSunny.1 mph11%29.86 "Hg10 mi
4:00 PM46 °FPassing clouds.3 mph12%29.86 "HgN/A
3:00 PM45 °FPassing clouds.8 mph12%29.89 "HgN/A
2:00 PM43 °FPassing clouds.8 mph13%29.92 "HgN/A
1:00 PM39 °FPassing clouds.8 mph16%29.98 "HgN/A
12:00 PM37 °FPassing clouds.6 mph18%30.01 "HgN/A
11:00 AM34 °FPassing clouds.3 mph21%30.04 "HgN/A
10:00 AM25 °FSunny.1 mph33%30.07 "Hg10 mi
9:00 AM16 °FSunny.6 mph41%30.07 "Hg10 mi
8:00 AM7 °FClear.6 mph51%30.07 "Hg10 mi
7:00 AM9 °FClear.3 mph47%30.04 "Hg10 mi
6:00 AM16 °FClear.3 mph37%30.04 "Hg10 mi
5:00 AM16 °FClear.6 mph37%30.04 "Hg10 mi
4:00 AM18 °FClear.10 mph35%30.07 "Hg10 mi
3:00 AM19 °FClear.8 mph32%30.07 "Hg10 mi
2:00 AM18 °FClear.8 mph35%30.09 "Hg10 mi
1:00 AM16 °FClear.8 mph37%30.09 "Hg10 mi
12:00 AM16 °FClear.8 mph34%30.12 "Hg10 mi
Weather by CustomWeather, © 2016

See weather overviewHow to use our weather pages